Location: Unspecified
(0.0000°N, 0.0000°E)
Time: 11:27:22
(UTC+00:00)

A-11 Canister half - Pass Details

Date: 04 August 2021
Orbit: 1515 x 1685 km, 47.2° (Epoch: 27 September)

Event Time Altitude Azimuth Distance (km) Brightness Sun altitude
Rises 15:31:55 0° 272° (W) 4,699 12.4 36.6°
Drops below altitude 10° 15:40:27 10° 317° (NW) 3,769 12.1 34.6°
Maximum altitude 15:40:32 10° 317° (NW) 3,770 12.1 34.6°
Sets 15:49:26 0° 3° (N) 4,813 11.8 32.5°
